sat.trackr.live / text

‹ back to catalog

STARLINK-4723

NORAD 53797 · 2022-111AA

PAYLOAD ACTIVE UNKNOWN

§ Identity

Operator
Country
US
Launch date
2022-09-11
Launch site
AFETR
Launch vehicle
Mass (kg)
RCS (m²)

Purposes: comms

External: N2YO · Heavens-Above · Gunter

§ Orbital elements

Epoch: 2026-09-20T06:32:34.616832Z

Period
94.01 min
Inclination
53.1598°
Eccentricity
0.0001171
Mean motion
15.31701032 rev/d
Perigee alt
469.9 km
Apogee alt
471.5 km
Semi-major
6,848.9 km
B*
2.1151e-5
RAAN
107.1862°
Arg perigee
94.2397°
Mean anomaly
265.8738°
Rev number
22,323

§ Raw data

STARLINK-47231 53797U 22111AA  26263.27262288  .00000291  00000+0  21151-4 0  99992 53797  53.1598 107.1862 0001171  94.2397 265.8738 15.31701032223237

JSON: /api/v1/satellites/53797 · /tle

For live sub-satellite position, see the globe view (requires WebGL).

§ Visibility from observer

Set your observer location to see the next 7 days of passes ≥ 10°. The values pass through the URL so the page stays shareable.

No JS? Fill the form by hand. The geolocation button needs JavaScript.